Year,Month,Day,Hour,Minute,Value (Times are PST for temperature in C)
2015,11,21,00,00,2.80
2015,11,21,00,01,2.80
2015,11,21,00,02,2.80
2015,11,21,00,03,2.80
2015,11,21,00,04,2.80
2015,11,21,00,05,2.80
2015,11,21,00,06,2.80
2015,11,21,00,07,2.80
2015,11,21,00,08,2.80
2015,11,21,00,09,2.80
2015,11,21,00,10,2.80
2015,11,21,00,11,2.80
2015,11,21,00,12,2.80
2015,11,21,00,13,2.80
2015,11,21,00,14,2.80
2015,11,21,00,15,2.70
2015,11,21,00,16,2.80
2015,11,21,00,17,2.80
2015,11,21,00,18,2.80
2015,11,21,00,19,2.80
2015,11,21,00,20,2.80
2015,11,21,00,21,2.80
2015,11,21,00,22,2.80
2015,11,21,00,23,2.80
2015,11,21,00,24,2.80
2015,11,21,00,25,2.80
2015,11,21,00,26,2.80
2015,11,21,00,27,2.80
2015,11,21,00,28,2.80
2015,11,21,00,29,2.80
2015,11,21,00,30,2.80
2015,11,21,00,31,2.80
2015,11,21,00,32,2.80
2015,11,21,00,33,2.80
2015,11,21,00,34,2.80
2015,11,21,00,35,2.80
2015,11,21,00,36,2.80
2015,11,21,00,37,2.80
2015,11,21,00,38,2.80
2015,11,21,00,39,2.80
2015,11,21,00,40,2.80
2015,11,21,00,41,2.80
2015,11,21,00,42,2.80
2015,11,21,00,43,2.80
2015,11,21,00,44,2.80
2015,11,21,00,45,2.80
2015,11,21,00,46,2.80
2015,11,21,00,47,2.90
2015,11,21,00,48,2.90
2015,11,21,00,49,2.90
2015,11,21,00,50,2.90
2015,11,21,00,51,2.90
2015,11,21,00,52,2.80
2015,11,21,00,53,2.90
2015,11,21,00,54,2.90
2015,11,21,00,55,2.90
2015,11,21,00,56,2.90
2015,11,21,00,57,2.90
2015,11,21,00,58,2.90
2015,11,21,00,59,2.90
2015,11,21,01,00,2.90
2015,11,21,01,01,2.90
2015,11,21,01,02,2.90
2015,11,21,01,03,2.90
2015,11,21,01,04,2.90
2015,11,21,01,05,2.90
2015,11,21,01,06,2.90
2015,11,21,01,07,2.90
2015,11,21,01,08,2.90
2015,11,21,01,09,2.90
2015,11,21,01,10,2.90
2015,11,21,01,11,2.90
2015,11,21,01,12,2.90
2015,11,21,01,13,2.90
2015,11,21,01,14,2.90
2015,11,21,01,15,2.90
2015,11,21,01,16,2.90
2015,11,21,01,17,2.90
2015,11,21,01,18,2.90
2015,11,21,01,19,2.90
2015,11,21,01,20,2.90
2015,11,21,01,21,2.80
2015,11,21,01,22,2.80
2015,11,21,01,23,2.80
2015,11,21,01,24,2.80
2015,11,21,01,25,2.80
2015,11,21,01,26,2.80
2015,11,21,01,27,2.80
2015,11,21,01,28,2.80
2015,11,21,01,29,2.80
2015,11,21,01,30,2.80
2015,11,21,01,31,2.80
2015,11,21,01,32,2.80
2015,11,21,01,33,2.80
2015,11,21,01,34,2.80
2015,11,21,01,35,2.80
2015,11,21,01,36,2.80
2015,11,21,01,37,2.70
2015,11,21,01,38,2.70
2015,11,21,01,39,2.70
2015,11,21,01,40,2.70
2015,11,21,01,41,2.70
2015,11,21,01,42,2.70
2015,11,21,01,43,2.70
2015,11,21,01,44,2.70
2015,11,21,01,45,2.70
2015,11,21,01,46,2.70
2015,11,21,01,47,2.70
2015,11,21,01,48,2.70
2015,11,21,01,49,2.70
2015,11,21,01,50,2.70
2015,11,21,01,51,2.70
2015,11,21,01,52,2.70
2015,11,21,01,53,2.70
2015,11,21,01,54,2.70
2015,11,21,01,55,2.70
2015,11,21,01,56,2.70
2015,11,21,01,57,2.70
2015,11,21,01,58,2.70
2015,11,21,01,59,2.70
2015,11,21,02,00,2.70
2015,11,21,02,01,2.70
2015,11,21,02,02,2.70
2015,11,21,02,03,2.70
2015,11,21,02,04,2.70
2015,11,21,02,05,2.70
2015,11,21,02,06,2.70
2015,11,21,02,07,2.70
2015,11,21,02,08,2.70
2015,11,21,02,09,2.70
2015,11,21,02,10,2.70
2015,11,21,02,11,2.70
2015,11,21,02,12,2.70
2015,11,21,02,13,2.70
2015,11,21,02,14,2.70
2015,11,21,02,15,2.70
2015,11,21,02,16,2.70
2015,11,21,02,17,2.70
2015,11,21,02,18,2.70
2015,11,21,02,19,2.70
2015,11,21,02,20,2.70
2015,11,21,02,21,2.70
2015,11,21,02,22,2.70
2015,11,21,02,23,2.70
2015,11,21,02,24,2.70
2015,11,21,02,25,2.70
2015,11,21,02,26,2.70
2015,11,21,02,27,2.70
2015,11,21,02,28,2.70
2015,11,21,02,29,2.60
2015,11,21,02,30,2.60
2015,11,21,02,31,2.60
2015,11,21,02,32,2.60
2015,11,21,02,33,2.60
2015,11,21,02,34,2.60
2015,11,21,02,35,2.60
2015,11,21,02,36,2.60
2015,11,21,02,37,2.60
2015,11,21,02,38,2.60
2015,11,21,02,39,2.60
2015,11,21,02,40,2.60
2015,11,21,02,41,2.50
2015,11,21,02,42,2.50
2015,11,21,02,43,2.50
2015,11,21,02,44,2.50
2015,11,21,02,45,2.50
2015,11,21,02,46,2.50
2015,11,21,02,47,2.50
2015,11,21,02,48,2.40
2015,11,21,02,49,2.40
2015,11,21,02,50,2.40
2015,11,21,02,51,2.40
2015,11,21,02,52,2.40
2015,11,21,02,53,2.40
2015,11,21,02,54,2.40
2015,11,21,02,55,2.40
2015,11,21,02,56,2.30
2015,11,21,02,57,2.30
2015,11,21,02,58,2.30
2015,11,21,02,59,2.30
2015,11,21,03,00,2.30
2015,11,21,03,01,2.30
2015,11,21,03,02,2.30
2015,11,21,03,03,2.30
2015,11,21,03,04,2.30
2015,11,21,03,05,2.30
2015,11,21,03,06,2.30
2015,11,21,03,07,2.30
2015,11,21,03,08,2.40
2015,11,21,03,09,2.40
2015,11,21,03,10,2.40
2015,11,21,03,11,2.40
2015,11,21,03,12,2.40
2015,11,21,03,13,2.40
2015,11,21,03,14,2.50
2015,11,21,03,15,2.50
2015,11,21,03,16,2.50
2015,11,21,03,17,2.50
2015,11,21,03,18,2.50
2015,11,21,03,19,2.50
2015,11,21,03,20,2.50
2015,11,21,03,21,2.50
2015,11,21,03,22,2.50
2015,11,21,03,23,2.40
2015,11,21,03,24,2.40
2015,11,21,03,25,2.40
2015,11,21,03,26,2.40
2015,11,21,03,27,2.40
2015,11,21,03,28,2.40
2015,11,21,03,29,2.40
2015,11,21,03,30,2.40
2015,11,21,03,31,2.40
2015,11,21,03,32,2.40
2015,11,21,03,33,2.40
2015,11,21,03,34,2.40
2015,11,21,03,35,2.40
2015,11,21,03,36,2.40
2015,11,21,03,37,2.40
2015,11,21,03,38,2.40
2015,11,21,03,39,2.40
2015,11,21,03,40,2.40
2015,11,21,03,41,2.40
2015,11,21,03,42,2.40
2015,11,21,03,43,2.40
2015,11,21,03,44,2.40
2015,11,21,03,45,2.40
2015,11,21,03,46,2.40
2015,11,21,03,47,2.40
2015,11,21,03,48,2.30
2015,11,21,03,49,2.30
2015,11,21,03,50,2.30
2015,11,21,03,51,2.30
2015,11,21,03,52,2.30
2015,11,21,03,53,2.30
2015,11,21,03,54,2.30
2015,11,21,03,55,2.30
2015,11,21,03,56,2.30
2015,11,21,03,57,2.30
2015,11,21,03,58,2.30
2015,11,21,03,59,2.30
2015,11,21,04,00,2.30
2015,11,21,04,01,2.20
2015,11,21,04,02,2.20
2015,11,21,04,03,2.20
2015,11,21,04,04,2.20
2015,11,21,04,05,2.20
2015,11,21,04,06,2.20
2015,11,21,04,07,2.20
2015,11,21,04,08,2.10
2015,11,21,04,09,2.10
2015,11,21,04,10,2.10
2015,11,21,04,11,2.10
2015,11,21,04,12,2.10
2015,11,21,04,13,2.10
2015,11,21,04,14,2.10
2015,11,21,04,15,2.00
2015,11,21,04,16,2.00
2015,11,21,04,17,2.00
2015,11,21,04,18,2.00
2015,11,21,04,19,2.00
2015,11,21,04,20,2.00
2015,11,21,04,21,2.00
2015,11,21,04,22,2.00
2015,11,21,04,23,2.00
2015,11,21,04,24,2.10
2015,11,21,04,25,2.10
2015,11,21,04,26,2.10
2015,11,21,04,27,2.10
2015,11,21,04,28,2.10
2015,11,21,04,29,2.10
2015,11,21,04,30,2.10
2015,11,21,04,31,2.10
2015,11,21,04,32,2.10
2015,11,21,04,33,2.10
2015,11,21,04,34,2.10
2015,11,21,04,35,2.10
2015,11,21,04,36,2.10
2015,11,21,04,37,2.10
2015,11,21,04,38,2.10
2015,11,21,04,39,2.10
2015,11,21,04,40,2.10
2015,11,21,04,41,2.20
2015,11,21,04,42,2.20
2015,11,21,04,43,2.20
2015,11,21,04,44,2.20
2015,11,21,04,45,2.20
2015,11,21,04,46,2.20
2015,11,21,04,47,2.20
2015,11,21,04,48,2.20
2015,11,21,04,49,2.20
2015,11,21,04,50,2.20
2015,11,21,04,51,2.20
2015,11,21,04,52,2.20
2015,11,21,04,53,2.20
2015,11,21,04,54,2.20
2015,11,21,04,55,2.20
2015,11,21,04,56,2.20
2015,11,21,04,57,2.20
2015,11,21,04,58,2.20
2015,11,21,04,59,2.10
2015,11,21,05,00,2.10
2015,11,21,05,01,2.10
2015,11,21,05,02,2.10
2015,11,21,05,03,2.10
2015,11,21,05,04,2.10
2015,11,21,05,05,2.00
2015,11,21,05,06,2.00
2015,11,21,05,07,2.00
2015,11,21,05,08,2.00
2015,11,21,05,09,2.00
2015,11,21,05,10,2.00
2015,11,21,05,11,2.00
2015,11,21,05,12,1.90
2015,11,21,05,13,1.90
2015,11,21,05,14,1.90
2015,11,21,05,15,1.90
2015,11,21,05,16,1.90
2015,11,21,05,17,1.90
2015,11,21,05,18,1.90
2015,11,21,05,19,1.80
2015,11,21,05,20,1.80
2015,11,21,05,21,1.80
2015,11,21,05,22,1.80
2015,11,21,05,23,1.80
2015,11,21,05,24,1.80
2015,11,21,05,25,1.80
2015,11,21,05,26,1.80
2015,11,21,05,27,1.80
2015,11,21,05,28,1.80
2015,11,21,05,29,1.80
2015,11,21,05,30,1.80
2015,11,21,05,31,1.80
2015,11,21,05,32,1.80
2015,11,21,05,33,1.80
2015,11,21,05,34,1.80
2015,11,21,05,35,1.80
2015,11,21,05,36,1.80
2015,11,21,05,37,1.80
2015,11,21,05,38,1.80
2015,11,21,05,39,1.80
2015,11,21,05,40,1.80
2015,11,21,05,41,1.80
2015,11,21,05,42,1.80
2015,11,21,05,43,1.80
2015,11,21,05,44,1.80
2015,11,21,05,45,1.80
2015,11,21,05,46,1.80
2015,11,21,05,47,1.80
2015,11,21,05,48,1.80
2015,11,21,05,49,1.80
2015,11,21,05,50,1.90
2015,11,21,05,51,1.90
2015,11,21,05,52,1.90
2015,11,21,05,53,1.90
2015,11,21,05,54,1.90
2015,11,21,05,55,1.80
2015,11,21,05,56,1.80
2015,11,21,05,57,1.80
2015,11,21,05,58,1.80
2015,11,21,05,59,1.80
2015,11,21,06,00,1.80
2015,11,21,06,01,1.80
2015,11,21,06,02,1.80
2015,11,21,06,03,1.80
2015,11,21,06,04,1.80
2015,11,21,06,05,1.70
2015,11,21,06,06,1.70
2015,11,21,06,07,1.70
2015,11,21,06,08,1.70
2015,11,21,06,09,1.70
2015,11,21,06,10,1.70
2015,11,21,06,11,1.70
2015,11,21,06,12,1.70
2015,11,21,06,13,1.70
2015,11,21,06,14,1.70
2015,11,21,07,56,1.80
2015,11,21,07,57,1.80
2015,11,21,07,58,1.80
2015,11,21,07,59,1.80
2015,11,21,08,00,1.80
2015,11,21,08,01,1.80
2015,11,21,08,02,1.80
2015,11,21,08,03,1.80
2015,11,21,08,04,1.80
2015,11,21,08,05,1.80
2015,11,21,08,06,1.80
2015,11,21,08,07,1.80
2015,11,21,08,08,1.80
2015,11,21,08,09,1.80
2015,11,21,08,10,1.80
2015,11,21,08,11,1.80
2015,11,21,08,12,1.90
2015,11,21,08,13,1.90
2015,11,21,08,14,1.90
2015,11,21,08,15,1.90
2015,11,21,08,16,2.00
2015,11,21,08,17,2.00
2015,11,21,08,18,2.10
2015,11,21,08,19,2.10
2015,11,21,08,20,2.20
2015,11,21,08,21,2.20
2015,11,21,08,22,2.30
2015,11,21,08,23,2.30
2015,11,21,08,24,2.40
2015,11,21,08,25,2.40
2015,11,21,08,26,2.50
2015,11,21,08,27,2.50
2015,11,21,08,28,2.60
2015,11,21,08,29,2.70
2015,11,21,08,30,2.70
2015,11,21,08,31,2.80
2015,11,21,08,32,2.80
2015,11,21,08,33,2.90
2015,11,21,08,34,2.90
2015,11,21,08,35,2.90
2015,11,21,08,36,3.00
2015,11,21,08,37,3.10
2015,11,21,08,38,3.10
2015,11,21,08,39,3.10
2015,11,21,08,40,3.20
2015,11,21,08,41,3.20
2015,11,21,08,42,3.20
2015,11,21,08,43,3.30
2015,11,21,08,44,3.30
2015,11,21,08,45,3.30
2015,11,21,08,46,3.40
2015,11,21,08,47,3.40
2015,11,21,08,48,3.50
2015,11,21,08,49,3.50
2015,11,21,08,50,3.60
2015,11,21,08,51,3.60
2015,11,21,08,52,3.60
2015,11,21,08,53,3.70
2015,11,21,08,54,3.70
2015,11,21,08,55,3.80
2015,11,21,08,56,3.80
2015,11,21,08,57,3.80
2015,11,21,08,58,3.90
2015,11,21,08,59,3.90
2015,11,21,09,00,3.90
2015,11,21,09,01,4.00
2015,11,21,09,02,4.00
2015,11,21,09,03,4.10
2015,11,21,09,04,4.10
2015,11,21,09,05,4.20
2015,11,21,09,06,4.20
2015,11,21,09,07,4.20
2015,11,21,09,08,4.30
2015,11,21,09,09,4.30
2015,11,21,09,10,4.30
2015,11,21,09,11,4.40
2015,11,21,09,12,4.40
2015,11,21,09,13,4.40
2015,11,21,09,14,4.50
2015,11,21,09,15,4.50
2015,11,21,09,16,4.60
2015,11,21,09,17,4.60
2015,11,21,09,18,4.70
2015,11,21,09,19,4.70
2015,11,21,09,20,4.70
2015,11,21,09,21,4.80
2015,11,21,09,22,4.80
2015,11,21,09,23,4.80
2015,11,21,09,24,4.90
2015,11,21,09,25,4.90
2015,11,21,09,26,4.90
2015,11,21,09,27,4.90
2015,11,21,09,28,5.00
2015,11,21,09,29,5.00
2015,11,21,09,30,5.10
2015,11,21,09,31,5.10
2015,11,21,09,32,5.20
2015,11,21,09,33,5.20
2015,11,21,09,34,5.20
2015,11,21,09,35,5.20
2015,11,21,09,36,5.20
2015,11,21,09,37,5.20
2015,11,21,09,38,5.20
2015,11,21,09,39,5.20
2015,11,21,09,40,5.20
2015,11,21,09,41,5.20
2015,11,21,09,42,5.20
2015,11,21,09,43,5.20
2015,11,21,09,44,5.20
2015,11,21,09,45,5.20
2015,11,21,09,46,5.20
2015,11,21,09,47,5.20
2015,11,21,09,48,5.20
2015,11,21,09,49,5.20
2015,11,21,09,50,5.20
2015,11,21,09,51,5.30
2015,11,21,09,52,5.30
2015,11,21,09,53,5.40
2015,11,21,09,54,5.40
2015,11,21,09,55,5.40
2015,11,21,09,56,5.40
2015,11,21,09,57,5.40
2015,11,21,09,58,5.40
2015,11,21,09,59,5.40
2015,11,21,10,00,5.40
2015,11,21,10,01,5.40
2015,11,21,10,02,5.40
2015,11,21,10,03,5.40
2015,11,21,10,04,5.40
2015,11,21,10,05,5.40
2015,11,21,10,06,5.50
2015,11,21,10,07,5.50
2015,11,21,10,08,5.50
2015,11,21,10,09,5.50
2015,11,21,10,10,5.50
2015,11,21,10,11,5.50
2015,11,21,10,12,5.40
2015,11,21,10,13,5.40
2015,11,21,10,14,5.40
2015,11,21,10,15,5.40
2015,11,21,10,16,5.50
2015,11,21,10,17,5.50
2015,11,21,10,18,5.50
2015,11,21,10,19,5.60
2015,11,21,10,20,5.60
2015,11,21,10,21,5.60
2015,11,21,10,22,5.60
2015,11,21,10,23,5.60
2015,11,21,10,24,5.60
2015,11,21,10,25,5.60
2015,11,21,10,26,5.60
2015,11,21,10,27,5.60
2015,11,21,10,28,5.60
2015,11,21,10,29,5.60
2015,11,21,10,30,5.70
2015,11,21,10,31,5.70
2015,11,21,10,32,5.70
2015,11,21,10,33,5.70
2015,11,21,10,34,5.70
2015,11,21,10,35,5.70
2015,11,21,10,36,5.80
2015,11,21,10,37,5.80
2015,11,21,10,38,5.80
2015,11,21,10,39,5.80
2015,11,21,10,40,5.80
2015,11,21,10,41,5.80
2015,11,21,10,42,5.80
2015,11,21,10,43,5.90
2015,11,21,10,44,6.00
2015,11,21,10,45,6.00
2015,11,21,10,46,6.10
2015,11,21,10,47,6.20
2015,11,21,10,48,6.30
2015,11,21,10,49,6.30
2015,11,21,10,50,6.40
2015,11,21,10,51,6.40
2015,11,21,10,52,6.40
2015,11,21,10,53,6.50
2015,11,21,10,54,6.50
2015,11,21,10,55,6.60
2015,11,21,10,56,6.70
2015,11,21,10,57,6.90
2015,11,21,10,58,7.00
2015,11,21,10,59,7.10
2015,11,21,11,00,7.20
2015,11,21,11,01,7.20
2015,11,21,11,02,7.20
2015,11,21,11,03,7.30
2015,11,21,11,04,7.30
2015,11,21,11,05,7.30
2015,11,21,11,06,7.20
2015,11,21,11,07,7.10
2015,11,21,11,08,7.10
2015,11,21,11,09,7.00
2015,11,21,11,10,6.90
2015,11,21,11,11,6.80
2015,11,21,11,12,6.70
2015,11,21,11,13,6.60
2015,11,21,11,14,6.60
2015,11,21,11,15,6.50
2015,11,21,11,16,6.50
2015,11,21,11,17,6.50
2015,11,21,11,18,6.40
2015,11,21,11,19,6.40
2015,11,21,11,20,6.50
2015,11,21,11,21,6.50
2015,11,21,11,22,6.60
2015,11,21,11,23,6.60
2015,11,21,11,24,6.60
2015,11,21,11,25,6.60
2015,11,21,11,26,6.50
2015,11,21,11,27,6.50
2015,11,21,11,28,6.40
2015,11,21,11,29,6.40
2015,11,21,11,30,6.40
2015,11,21,11,31,6.40
2015,11,21,11,32,6.30
2015,11,21,11,33,6.30
2015,11,21,11,34,6.30
2015,11,21,11,35,6.20
2015,11,21,11,36,6.20
2015,11,21,11,37,6.20
2015,11,21,11,38,6.20
2015,11,21,11,39,6.20
2015,11,21,11,40,6.20
2015,11,21,11,41,6.20
2015,11,21,11,42,6.20
2015,11,21,11,43,6.30
2015,11,21,11,44,6.30
2015,11,21,11,45,6.40
2015,11,21,11,46,6.40
2015,11,21,11,47,6.40
2015,11,21,11,48,6.50
2015,11,21,11,49,6.50
2015,11,21,11,50,6.50
2015,11,21,11,51,6.60
2015,11,21,11,52,6.50
2015,11,21,11,53,6.50
2015,11,21,11,54,6.50
2015,11,21,11,55,6.50
2015,11,21,11,56,6.50
2015,11,21,11,57,6.50
2015,11,21,11,58,6.40
2015,11,21,11,59,6.40
2015,11,21,12,00,6.40
2015,11,21,12,01,6.40
2015,11,21,12,02,6.50
2015,11,21,12,03,6.50
2015,11,21,12,04,6.50
2015,11,21,12,05,6.50
2015,11,21,12,06,6.50
2015,11,21,12,07,6.50
2015,11,21,12,08,6.50
2015,11,21,12,09,6.50
2015,11,21,12,10,6.50
2015,11,21,12,11,6.50
2015,11,21,12,12,6.40
2015,11,21,12,13,6.40
2015,11,21,12,14,6.40
2015,11,21,12,15,6.40
2015,11,21,12,16,6.40
2015,11,21,12,17,6.40
2015,11,21,12,18,6.50
2015,11,21,12,19,6.50
2015,11,21,12,20,6.60
2015,11,21,12,21,6.70
2015,11,21,12,22,6.70
2015,11,21,12,23,6.80
2015,11,21,12,24,6.90
2015,11,21,12,25,6.90
2015,11,21,12,26,6.90
2015,11,21,12,27,7.00
2015,11,21,12,28,6.90
2015,11,21,12,29,6.90
2015,11,21,12,30,6.90
2015,11,21,12,31,6.90
2015,11,21,12,32,6.90
2015,11,21,12,33,6.80
2015,11,21,12,34,6.80
2015,11,21,12,35,6.80
2015,11,21,12,36,6.80
2015,11,21,12,37,6.80
2015,11,21,12,38,6.80
2015,11,21,12,39,6.80
2015,11,21,12,40,6.80
2015,11,21,12,41,6.80
2015,11,21,12,42,6.90
2015,11,21,12,43,6.90
2015,11,21,12,44,6.90
2015,11,21,12,45,6.90
2015,11,21,12,46,6.90
2015,11,21,12,47,6.90
2015,11,21,12,48,6.90
2015,11,21,12,49,6.80
2015,11,21,12,50,6.90
2015,11,21,12,51,6.90
2015,11,21,12,52,6.90
2015,11,21,12,53,6.90
2015,11,21,12,54,7.00
2015,11,21,12,55,7.00
2015,11,21,12,56,7.10
2015,11,21,12,57,7.10
2015,11,21,12,58,7.10
2015,11,21,12,59,7.10
2015,11,21,13,00,7.10
2015,11,21,13,01,7.10
2015,11,21,13,02,7.10
2015,11,21,13,03,7.10
2015,11,21,13,04,7.10
2015,11,21,13,05,7.20
2015,11,21,13,06,7.20
2015,11,21,13,07,7.20
2015,11,21,13,08,7.20
2015,11,21,13,09,7.20
2015,11,21,13,10,7.30
2015,11,21,13,11,7.30
2015,11,21,13,12,7.30
2015,11,21,13,13,7.30
2015,11,21,13,14,7.30
2015,11,21,13,15,7.20
2015,11,21,13,16,7.20
2015,11,21,13,17,7.20
2015,11,21,13,18,7.20
2015,11,21,13,19,7.20
2015,11,21,13,20,7.30
2015,11,21,13,21,7.30
2015,11,21,13,22,7.40
2015,11,21,13,23,7.40
2015,11,21,13,24,7.40
2015,11,21,13,25,7.40
2015,11,21,13,26,7.40
2015,11,21,13,27,7.40
2015,11,21,13,28,7.40
2015,11,21,13,29,7.30
2015,11,21,13,30,7.30
2015,11,21,13,31,7.40
2015,11,21,13,32,7.40
2015,11,21,13,33,7.40
2015,11,21,13,34,7.40
2015,11,21,13,35,7.30
2015,11,21,13,36,7.30
2015,11,21,13,37,7.40
2015,11,21,13,38,7.40
2015,11,21,13,39,7.40
2015,11,21,13,40,7.40
2015,11,21,13,41,7.50
2015,11,21,13,42,7.60
2015,11,21,13,43,7.60
2015,11,21,13,44,7.60
2015,11,21,13,45,7.60
2015,11,21,13,46,7.70
2015,11,21,13,47,7.70
2015,11,21,13,48,7.80
2015,11,21,13,49,7.70
2015,11,21,13,50,7.70
2015,11,21,13,51,7.70
2015,11,21,13,52,7.70
2015,11,21,13,53,7.70
2015,11,21,13,54,7.60
2015,11,21,13,55,7.60
2015,11,21,13,56,7.60
2015,11,21,13,57,7.50
2015,11,21,13,58,7.50
2015,11,21,13,59,7.50
2015,11,21,14,00,7.50
2015,11,21,14,01,7.50
2015,11,21,14,02,7.50
2015,11,21,14,03,7.50
2015,11,21,14,04,7.50
2015,11,21,14,05,7.50
2015,11,21,14,06,7.60
2015,11,21,14,07,7.60
2015,11,21,14,08,7.60
2015,11,21,14,09,7.60
2015,11,21,14,10,7.60
2015,11,21,14,11,7.60
2015,11,21,14,12,7.70
2015,11,21,14,13,7.70
2015,11,21,14,14,7.70
2015,11,21,14,15,7.70
2015,11,21,14,16,7.70
2015,11,21,14,17,7.70
2015,11,21,14,18,7.70
2015,11,21,14,19,7.70
2015,11,21,14,20,7.60
2015,11,21,14,21,7.60
2015,11,21,14,22,7.60
2015,11,21,14,23,7.60
2015,11,21,14,24,7.60
2015,11,21,14,25,7.60
2015,11,21,14,26,7.50
2015,11,21,14,27,7.50
2015,11,21,14,28,7.50
2015,11,21,14,29,7.40
2015,11,21,14,30,7.40
2015,11,21,14,31,7.40
2015,11,21,14,32,7.40
2015,11,21,14,33,7.40
2015,11,21,14,34,7.40
2015,11,21,14,35,7.40
2015,11,21,14,36,7.40
2015,11,21,14,37,7.40
2015,11,21,14,38,7.40
2015,11,21,14,39,7.40
2015,11,21,14,40,7.40
2015,11,21,14,41,7.40
2015,11,21,14,42,7.40
2015,11,21,14,43,7.40
2015,11,21,14,44,7.40
2015,11,21,14,45,7.50
2015,11,21,14,46,7.50
2015,11,21,14,47,7.50
2015,11,21,14,48,7.50
2015,11,21,14,49,7.50
2015,11,21,14,50,7.50
2015,11,21,14,51,7.50
2015,11,21,14,52,7.50
2015,11,21,14,53,7.50
2015,11,21,14,54,7.50
2015,11,21,14,55,7.40
2015,11,21,14,56,7.50
2015,11,21,14,57,7.50
2015,11,21,14,58,7.60
2015,11,21,14,59,7.60
2015,11,21,15,00,7.60
2015,11,21,15,01,7.70
2015,11,21,15,02,7.70
2015,11,21,15,03,7.70
2015,11,21,15,04,7.70
2015,11,21,15,05,7.70
2015,11,21,15,06,7.70
2015,11,21,15,07,7.70
2015,11,21,15,08,7.80
2015,11,21,15,09,7.70
2015,11,21,15,10,7.70
2015,11,21,15,11,7.70
2015,11,21,15,12,7.60
2015,11,21,15,13,7.60
2015,11,21,15,14,7.60
2015,11,21,15,15,7.50
2015,11,21,15,16,7.50
2015,11,21,15,17,7.50
2015,11,21,15,18,7.40
2015,11,21,15,19,7.40
2015,11,21,15,20,7.40
2015,11,21,15,21,7.40
2015,11,21,15,22,7.40
2015,11,21,15,23,7.30
2015,11,21,15,24,7.30
2015,11,21,15,25,7.30
2015,11,21,15,26,7.30
2015,11,21,15,27,7.30
2015,11,21,15,28,7.20
2015,11,21,15,29,7.20
2015,11,21,15,30,7.20
2015,11,21,15,31,7.20
2015,11,21,15,32,7.20
2015,11,21,15,33,7.20
2015,11,21,15,34,7.20
2015,11,21,15,35,7.20
2015,11,21,15,36,7.20
2015,11,21,15,37,7.20
2015,11,21,15,38,7.10
2015,11,21,15,39,7.10
2015,11,21,15,40,7.10
2015,11,21,15,41,7.10
2015,11,21,15,42,7.10
2015,11,21,15,43,7.10
2015,11,21,15,44,7.10
2015,11,21,15,45,7.10
2015,11,21,15,46,7.10
2015,11,21,15,47,7.10
2015,11,21,15,48,7.00
2015,11,21,15,49,7.00
2015,11,21,15,50,7.00
2015,11,21,15,51,7.00
2015,11,21,15,52,6.90
2015,11,21,15,53,6.90
2015,11,21,15,54,6.90
2015,11,21,15,55,6.90
2015,11,21,15,56,6.90
2015,11,21,15,57,6.90
2015,11,21,15,58,6.90
2015,11,21,15,59,6.90
2015,11,21,16,00,6.90
2015,11,21,16,01,6.90
2015,11,21,16,02,6.90
2015,11,21,16,03,6.90
2015,11,21,16,04,6.90
2015,11,21,16,05,6.80
2015,11,21,16,06,6.80
2015,11,21,16,07,6.80
2015,11,21,16,08,6.80
2015,11,21,16,09,6.80
2015,11,21,16,10,6.80
2015,11,21,16,11,6.80
2015,11,21,16,12,6.70
2015,11,21,16,13,6.70
2015,11,21,16,14,6.70
2015,11,21,16,15,6.60
2015,11,21,16,16,6.60
2015,11,21,16,17,6.50
2015,11,21,16,18,6.50
2015,11,21,16,19,6.50
2015,11,21,16,20,6.40
2015,11,21,16,21,6.40
2015,11,21,16,22,6.30
2015,11,21,16,23,6.30
2015,11,21,16,24,6.30
2015,11,21,16,25,6.30
2015,11,21,16,26,6.20
2015,11,21,16,27,6.20
2015,11,21,16,28,6.20
2015,11,21,16,29,6.20
2015,11,21,16,30,6.10
2015,11,21,16,31,6.10
2015,11,21,16,32,6.10
2015,11,21,16,33,6.10
2015,11,21,16,34,6.00
2015,11,21,16,35,6.00
2015,11,21,16,36,5.90
2015,11,21,16,37,5.90
2015,11,21,16,38,5.90
2015,11,21,16,39,5.90
2015,11,21,16,40,5.80
2015,11,21,16,41,5.80
2015,11,21,16,42,5.80
2015,11,21,16,43,5.80
2015,11,21,16,44,5.70
2015,11,21,16,45,5.70
2015,11,21,16,46,5.70
2015,11,21,16,47,5.70
2015,11,21,16,48,5.70
2015,11,21,16,49,5.60
2015,11,21,16,50,5.60
2015,11,21,16,51,5.60
2015,11,21,16,52,5.60
2015,11,21,16,53,5.60
2015,11,21,16,54,5.50
2015,11,21,16,55,5.50
2015,11,21,16,56,5.50
2015,11,21,16,57,5.40
2015,11,21,16,58,5.40
2015,11,21,16,59,5.40
2015,11,21,17,00,5.40
2015,11,21,17,01,5.40
2015,11,21,17,02,5.40
2015,11,21,17,03,5.30
2015,11,21,17,04,5.30
2015,11,21,17,05,5.30
2015,11,21,17,06,5.30
2015,11,21,17,07,5.30
2015,11,21,17,08,5.30
2015,11,21,17,09,5.20
2015,11,21,17,10,5.20
2015,11,21,17,11,5.20
2015,11,21,17,12,5.20
2015,11,21,17,13,5.10
2015,11,21,17,14,5.10
2015,11,21,17,15,5.10
2015,11,21,17,16,5.00
2015,11,21,17,17,4.90
2015,11,21,17,18,4.90
2015,11,21,17,19,4.90
2015,11,21,17,20,4.80
2015,11,21,17,21,4.80
2015,11,21,17,22,4.80
2015,11,21,17,23,4.80
2015,11,21,17,24,4.70
2015,11,21,17,25,4.70
2015,11,21,17,26,4.70
2015,11,21,17,27,4.70
2015,11,21,17,28,4.70
2015,11,21,17,29,4.70
2015,11,21,17,30,4.60
2015,11,21,17,31,4.60
2015,11,21,17,32,4.60
2015,11,21,17,33,4.60
2015,11,21,17,34,4.60
2015,11,21,17,35,4.60
2015,11,21,17,36,4.50
2015,11,21,17,37,4.50
2015,11,21,17,38,4.50
2015,11,21,17,39,4.50
2015,11,21,17,40,4.50
2015,11,21,17,41,4.40
2015,11,21,17,42,4.40
2015,11,21,17,43,4.40
2015,11,21,17,44,4.40
2015,11,21,17,45,4.30
2015,11,21,17,46,4.30
2015,11,21,17,47,4.30
2015,11,21,17,48,4.30
2015,11,21,17,49,4.30
2015,11,21,17,50,4.20
2015,11,21,17,51,4.20
2015,11,21,17,52,4.20
2015,11,21,17,53,4.20
2015,11,21,17,54,4.10
2015,11,21,17,55,4.10
2015,11,21,17,56,4.10
2015,11,21,17,57,4.00
2015,11,21,17,58,4.00
2015,11,21,17,59,3.90
2015,11,21,18,00,3.90
2015,11,21,18,01,3.90
2015,11,21,18,02,3.90
2015,11,21,18,03,3.90
2015,11,21,18,04,3.90
2015,11,21,18,05,3.90
2015,11,21,18,06,3.90
2015,11,21,18,07,3.90
2015,11,21,18,08,3.80
2015,11,21,18,09,3.80
2015,11,21,18,10,3.80
2015,11,21,18,11,3.80
2015,11,21,18,12,3.70
2015,11,21,18,13,3.70
2015,11,21,18,14,3.70
2015,11,21,18,15,3.60
2015,11,21,18,16,3.60
2015,11,21,18,17,3.60
2015,11,21,18,18,3.50
2015,11,21,18,19,3.50
2015,11,21,18,20,3.50
2015,11,21,18,21,3.40
2015,11,21,18,22,3.40
2015,11,21,18,23,3.40
2015,11,21,18,24,3.40
2015,11,21,18,25,3.40
2015,11,21,18,26,3.30
2015,11,21,18,27,3.30
2015,11,21,18,28,3.30
2015,11,21,18,29,3.30
2015,11,21,18,30,3.30
2015,11,21,18,31,3.30
2015,11,21,18,32,3.30
2015,11,21,18,33,3.30
2015,11,21,18,34,3.20
2015,11,21,18,35,3.20
2015,11,21,18,36,3.20
2015,11,21,18,37,3.20
2015,11,21,18,38,3.20
2015,11,21,18,39,3.20
2015,11,21,18,40,3.20
2015,11,21,18,41,3.20
2015,11,21,18,42,3.20
2015,11,21,18,43,3.10
2015,11,21,18,44,3.10
2015,11,21,18,45,3.10
2015,11,21,18,46,3.10
2015,11,21,18,47,3.10
2015,11,21,18,48,3.00
2015,11,21,18,49,3.00
2015,11,21,18,50,3.00
2015,11,21,18,51,2.90
2015,11,21,18,52,2.90
2015,11,21,18,53,2.90
2015,11,21,18,54,2.90
2015,11,21,18,55,2.90
2015,11,21,18,56,2.90
2015,11,21,18,57,2.90
2015,11,21,18,58,2.90
2015,11,21,18,59,2.80
2015,11,21,19,00,2.80
2015,11,21,19,01,2.80
2015,11,21,19,02,2.80
2015,11,21,19,03,2.80
2015,11,21,19,04,2.80
2015,11,21,19,05,2.80
2015,11,21,19,06,2.70
2015,11,21,19,07,2.70
2015,11,21,19,08,2.70
2015,11,21,19,09,2.70
2015,11,21,19,10,2.70
2015,11,21,19,11,2.70
2015,11,21,19,12,2.60
2015,11,21,19,13,2.60
2015,11,21,19,14,2.60
2015,11,21,19,15,2.60
2015,11,21,19,16,2.60
2015,11,21,19,17,2.60
2015,11,21,19,18,2.60
2015,11,21,19,19,2.50
2015,11,21,19,20,2.50
2015,11,21,19,21,2.50
2015,11,21,19,22,2.50
2015,11,21,19,23,2.50
2015,11,21,19,24,2.50
2015,11,21,19,25,2.40
2015,11,21,19,26,2.40
2015,11,21,19,27,2.40
2015,11,21,19,28,2.40
2015,11,21,19,29,2.40
2015,11,21,19,30,2.40
2015,11,21,19,31,2.40
2015,11,21,19,32,2.40
2015,11,21,19,33,2.40
2015,11,21,19,34,2.40
2015,11,21,19,35,2.40
2015,11,21,19,36,2.40
2015,11,21,19,37,2.30
2015,11,21,19,38,2.30
2015,11,21,19,39,2.30
2015,11,21,19,40,2.30
2015,11,21,19,41,2.30
2015,11,21,19,42,2.30
2015,11,21,19,43,2.30
2015,11,21,19,44,2.30
2015,11,21,19,45,2.20
2015,11,21,19,46,2.20
2015,11,21,19,47,2.20